| time (UTC) | temp F | wind direction | speed MPH | gust MPH | rain 1hr in | rain 24hr in | rain mn in | humidity % | barometer mb |
| 20260510225155 | 60 | 298 | 3.0 | 5.0 | 0.00 | 0.00 | 0.00 | 31 | 1019.7 |
| 20260510224155 | 60 | 298 | 5.0 | 9.0 | 0.00 | 0.00 | 0.00 | 30 | 1019.7 |
| 20260510223155 | 61 | 267 | 5.0 | 9.0 | 0.00 | 0.00 | 0.00 | 30 | 1019.7 |
| 20260510222155 | 63 | 259 | 4.0 | 8.0 | 0.00 | 0.00 | 0.00 | 28 | 1019.3 |
| 20260510221155 | 60 | 296 | 5.0 | 8.0 | 0.00 | 0.00 | 0.00 | 30 | 1019.3 |
| 20260510220155 | 61 | 313 | 4.0 | 9.0 | 0.00 | 0.00 | 0.00 | 30 | 1019.3 |
| 20260510215155 | 61 | 284 | 3.0 | 7.0 | 0.00 | 0.00 | 0.00 | 30 | 1019.3 |
| 20260510214155 | 60 | 278 | 4.0 | 7.0 | 0.00 | 0.00 | 0.00 | 30 | 1019.0 |
| 20260510213202 | 60 | 284 | 5.0 | 10.0 | 0.00 | 0.00 | 0.00 | 30 | 1019.0 |
| 20260510212154 | 61 | 263 | 6.0 | 12.0 | 0.00 | 0.00 | 0.00 | 29 | 1019.0 |
| 20260510211155 | 60 | 304 | 5.0 | 8.0 | 0.00 | 0.00 | 0.00 | 29 | 1019.0 |
| 20260510183652 | 60 | 315 | 5.0 | 9.0 | 0.00 | 0.00 | 0.00 | 31 | 1019.0 |
| 20260510182651 | 59 | 272 | 4.0 | 10.0 | 0.00 | 0.00 | 0.00 | 32 | 1019.3 |
| 20260510181652 | 61 | 291 | 4.0 | 8.0 | 0.00 | 0.00 | 0.00 | 30 | 1019.0 |
| 20260510181533 | 61 | 334 | 3.0 | 7.0 | 0.00 | 0.00 | 0.00 | 33 | 1019.0 |
| 20260510170159 | 58 | 288 | 7.0 | 12.0 | 0.00 | 0.00 | 0.00 | 31 | 1019.3 |
| 20260510165158 | 58 | 303 | 3.0 | 10.0 | 0.00 | 0.00 | 0.00 | 31 | 1019.3 |
| 20260510164158 | 59 | 335 | 4.0 | 9.0 | 0.00 | 0.00 | 0.00 | 32 | 1019.3 |
| 20260510163158 | 58 | 303 | 5.0 | 11.0 | 0.00 | 0.00 | 0.00 | 32 | 1019.0 |
| 20260510162158 | 58 | 303 | 3.0 | 5.0 | 0.00 | 0.00 | 0.00 | 33 | 1019.0 |
| 20260510161158 | 58 | 318 | 7.0 | 12.0 | 0.00 | 0.00 | 0.00 | 32 | 1019.0 |
| 20260510160158 | 58 | 324 | 7.0 | 13.0 | 0.00 | 0.00 | 0.00 | 31 | 1019.0 |
| 20260510155158 | 58 | 272 | 4.0 | 10.0 | 0.00 | 0.00 | 0.00 | 34 | 1018.7 |
| 20260510154158 | 58 | 297 | 6.0 | 10.0 | 0.00 | 0.00 | 0.00 | 33 | 1018.7 |
| 20260510153158 | 57 | 282 | 7.0 | 12.0 | 0.00 | 0.00 | 0.00 | 33 | 1018.7 |
| 20260510152158 | 57 | 277 | 7.0 | 12.0 | 0.00 | 0.00 | 0.00 | 33 | 1018.7 |
| 20260510151159 | 57 | 316 | 4.0 | 8.0 | 0.00 | 0.00 | 0.00 | 35 | 1018.7 |
| 20260510150158 | 57 | 332 | 4.0 | 8.0 | 0.00 | 0.00 | 0.00 | 35 | 1018.3 |
| 20260510145158 | 56 | 349 | 4.0 | 11.0 | 0.00 | 0.00 | 0.00 | 33 | 1018.3 |
| 20260510144158 | 56 | 298 | 3.0 | 8.0 | 0.00 | 0.00 | 0.00 | 35 | 1018.3 |
| 20260510143158 | 55 | 258 | 3.0 | 5.0 | 0.00 | 0.00 | 0.00 | 35 | 1018.3 |
| 20260510142158 | 55 | 333 | 3.0 | 7.0 | 0.00 | 0.00 | 0.00 | 36 | 1018.3 |
| 20260510141158 | 54 | 25 | 3.0 | 6.0 | 0.00 | 0.00 | 0.00 | 35 | 1018.3 |
| 20260510140159 | 54 | 345 | 3.0 | 6.0 | 0.00 | 0.00 | 0.00 | 37 | 1018.3 |
| 20260510135158 | 54 | 75 | 1.0 | 3.0 | 0.00 | 0.00 | 0.00 | 38 | 1018.3 |
| 20260510134158 | 54 | 198 | 1.0 | 2.0 | 0.00 | 0.00 | 0.00 | 40 | 1018.3 |
| 20260510133158 | 52 | 344 | 2.0 | 3.0 | 0.00 | 0.00 | 0.00 | 40 | 1018.3 |
| 20260510132158 | 53 | 103 | 1.0 | 2.0 | 0.00 | 0.00 | 0.00 | 40 | 1018.0 |
| 20260510131158 | 51 | 64 | 1.0 | 4.0 | 0.00 | 0.00 | 0.00 | 40 | 1018.0 |
| 20260510130159 | 51 | 14 | 2.0 | 5.0 | 0.00 | 0.00 | 0.00 | 41 | 1017.6 |
| 20260510125158 | 50 | 27 | 2.0 | 4.0 | 0.00 | 0.00 | 0.00 | 41 | 1017.6 |
| 20260510124158 | 50 | 25 | 2.0 | 4.0 | 0.00 | 0.00 | 0.00 | 42 | 1017.6 |
| 20260510123157 | 49 | 19 | 1.0 | 4.0 | 0.00 | 0.00 | 0.00 | 44 | 1017.3 |
| 20260510122158 | 49 | 5 | 2.0 | 3.0 | 0.00 | 0.00 | 0.00 | 46 | 1017.3 |
| 20260510121158 | 48 | 27 | 1.0 | 4.0 | 0.00 | 0.00 | 0.00 | 49 | 1017.3 |
| 20260510120200 | 48 | 11 | 3.0 | 6.0 | 0.00 | 0.00 | 0.00 | 50 | 1017.3 |
| 20260510115200 | 47 | 14 | 1.0 | 3.0 | 0.00 | 0.00 | 0.00 | 54 | 1017.0 |
| 20260510114157 | 46 | 45 | 1.0 | 2.0 | 0.00 | 0.00 | 0.00 | 58 | 1017.0 |
| 20260510113158 | 44 | 120 | 0.0 | 0.0 | 0.00 | 0.00 | 0.00 | 63 | 1016.6 |
| 20260510112159 | 42 | 24 | 0.0 | 2.0 | 0.00 | 0.00 | 0.00 | 66 | 1016.3 |
| 20260510111159 | 41 | 152 | 0.0 | 0.0 | 0.00 | 0.00 | 0.00 | 66 | 1016.3 |
| 20260510110158 | 42 | 154 | 0.0 | 1.0 | 0.00 | 0.00 | 0.00 | 66 | 1016.3 |
| 20260510105158 | 42 | 84 | 0.0 | 2.0 | 0.00 | 0.00 | 0.00 | 65 | 1015.9 |
| 20260510104158 | 41 | 191 | 0.0 | 1.0 | 0.00 | 0.00 | 0.00 | 66 | 1015.9 |
| 20260510103158 | 42 | 81 | 0.0 | 1.0 | 0.00 | 0.00 | 0.00 | 63 | 1015.6 |
| 20260510102157 | 42 | 111 | 0.0 | 1.0 | 0.00 | 0.00 | 0.00 | 63 | 1015.6 |
| 20260510101200 | 43 | 76 | 0.0 | 1.0 | 0.00 | 0.00 | 0.00 | 62 | 1015.6 |
| 20260510100200 | 43 | 132 | 0.0 | 2.0 | 0.00 | 0.00 | 0.00 | 61 | 1015.6 |
| 20260510095158 | 43 | 44 | 1.0 | 3.0 | 0.00 | 0.00 | 0.00 | 61 | 1015.6 |
| 20260510094159 | 43 | 27 | 1.0 | 2.0 | 0.00 | 0.00 | 0.00 | 61 | 1015.3 |
| 20260510093158 | 44 | 1 | 2.0 | 3.0 | 0.00 | 0.00 | 0.00 | 62 | 1015.3 |
| 20260510092157 | 44 | 44 | 1.0 | 2.0 | 0.00 | 0.00 | 0.00 | 59 | 1015.3 |
| 20260510091157 | 45 | 68 | 1.0 | 2.0 | 0.00 | 0.00 | 0.00 | 57 | 1014.9 |
| 20260510090201 | 45 | 5 | 1.0 | 2.0 | 0.00 | 0.00 | 0.00 | 56 | 1014.6 |
| 20260510085157 | 46 | 349 | 2.0 | 6.0 | 0.00 | 0.00 | 0.00 | 55 | 1014.2 |
| 20260510084157 | 47 | 21 | 2.0 | 6.0 | 0.00 | 0.00 | 0.00 | 52 | 1014.2 |
| 20260510083200 | 47 | 34 | 1.0 | 2.0 | 0.00 | 0.00 | 0.00 | 54 | 1014.2 |
| 20260510082157 | 48 | 43 | 2.0 | 6.0 | 0.00 | 0.00 | 0.00 | 52 | 1013.6 |
| 20260510081157 | 48 | 20 | 2.0 | 4.0 | 0.00 | 0.00 | 0.00 | 54 | 1013.2 |
| 20260510080157 | 48 | 7 | 2.0 | 5.0 | 0.00 | 0.00 | 0.00 | 56 | 1012.9 |
| 20260510075157 | 49 | 4 | 2.0 | 6.0 | 0.00 | 0.00 | 0.00 | 56 | 1012.6 |
| 20260510074157 | 49 | 1 | 2.0 | 5.0 | 0.00 | 0.00 | 0.00 | 57 | 1012.6 |
| 20260510073157 | 49 | 35 | 1.0 | 4.0 | 0.00 | 0.00 | 0.00 | 56 | 1012.2 |
| 20260510072157 | 49 | 105 | 1.0 | 3.0 | 0.00 | 0.00 | 0.00 | 58 | 1012.2 |
| 20260510070159 | 51 | 21 | 1.0 | 5.0 | 0.00 | 0.00 | 0.00 | 56 | 1011.9 |
| 20260510065157 | 51 | 61 | 1.0 | 6.0 | 0.00 | 0.00 | 0.00 | 56 | 1011.9 |
| 20260510063158 | 50 | 21 | 1.0 | 3.0 | 0.00 | 0.00 | 0.00 | 59 | 1011.9 |
| 20260510062158 | 50 | 352 | 1.0 | 2.0 | 0.00 | 0.00 | 0.00 | 60 | 1011.9 |
| 20260510060158 | 49 | 351 | 1.0 | 2.0 | 0.00 | 0.00 | 0.00 | 63 | 1011.5 |
| 20260510055157 | 50 | 353 | 1.0 | 2.0 | 0.00 | 0.00 | 0.00 | 61 | 1011.2 |
| 20260510054158 | 48 | 176 | 0.0 | 0.0 | 0.00 | 0.00 | 0.00 | 66 | 1011.2 |
| 20260510053158 | 49 | 177 | 0.0 | 0.0 | 0.00 | 0.00 | 0.00 | 65 | 1010.9 |
| 20260510050158 | 51 | 179 | 0.0 | 0.0 | 0.00 | 0.00 | 0.00 | 66 | 1010.5 |
| 20260510045157 | 52 | 179 | 0.0 | 0.0 | 0.00 | 0.00 | 0.00 | 61 | 1010.2 |
| 20260510044159 | 53 | 291 | 0.0 | 2.0 | 0.00 | 0.00 | 0.00 | 56 | 1010.2 |
| 20260510043158 | 54 | 144 | 0.0 | 1.0 | 0.00 | 0.00 | 0.00 | 52 | 1010.2 |
| 20260510042157 | 55 | 138 | 0.0 | 0.0 | 0.00 | 0.00 | 0.00 | 52 | 1010.2 |
| 20260510040201 | 57 | 9 | 1.0 | 4.0 | 0.00 | 0.00 | 0.00 | 47 | 1009.8 |
| 20260510035157 | 58 | 302 | 1.0 | 3.0 | 0.00 | 0.00 | 0.00 | 46 | 1009.5 |
| 20260510034157 | 59 | 347 | 3.0 | 8.0 | 0.00 | 0.00 | 0.00 | 44 | 1009.5 |
| 20260510033157 | 59 | 327 | 2.0 | 7.0 | 0.00 | 0.00 | 0.00 | 43 | 1009.2 |
| 20260510032157 | 60 | 343 | 4.0 | 7.0 | 0.00 | 0.00 | 0.00 | 43 | 1009.2 |
| 20260510031157 | 60 | 323 | 4.0 | 8.0 | 0.00 | 0.00 | 0.00 | 43 | 1008.8 |
| 20260510030157 | 61 | 354 | 3.0 | 8.0 | 0.00 | 0.00 | 0.00 | 43 | 1008.5 |
| 20260510025157 | 62 | 315 | 6.0 | 13.0 | 0.00 | 0.00 | 0.00 | 42 | 1008.2 |
| 20260510024159 | 62 | 326 | 5.0 | 9.0 | 0.00 | 0.00 | 0.00 | 43 | 1007.8 |
| 20260510023157 | 63 | 324 | 5.0 | 13.0 | 0.00 | 0.00 | 0.00 | 43 | 1007.8 |
| 20260510022157 | 63 | 325 | 5.0 | 11.0 | 0.00 | 0.00 | 0.00 | 44 | 1007.5 |
| 20260510021157 | 63 | 332 | 5.0 | 11.0 | 0.00 | 0.00 | 0.00 | 44 | 1007.5 |
| 20260510020157 | 62 | 303 | 3.0 | 8.0 | 0.00 | 0.00 | 0.00 | 48 | 1006.5 |
| 20260510015157 | 59 | 348 | 0.0 | 3.0 | 0.00 | 0.00 | 0.00 | 55 | 1006.1 |
| 20260510014157 | 59 | 175 | 0.0 | 0.0 | 0.00 | 0.00 | 0.00 | 62 | 1006.1 |
| 20260510013157 | 59 | 173 | 0.0 | 0.0 | 0.00 | 0.00 | 0.00 | 54 | 1005.8 |
| 20260510012157 | 61 | 173 | 0.0 | 0.0 | 0.00 | 0.00 | 0.00 | 54 | 1005.8 |
| 20260510011157 | 62 | 176 | 0.0 | 0.0 | 0.00 | 0.00 | 0.00 | 48 | 1005.4 |
| 20260510010157 | 64 | 183 | 0.0 | 1.0 | 0.00 | 0.00 | 0.00 | 45 | 1005.4 |
| 20260510005157 | 65 | 203 | 1.0 | 2.0 | 0.00 | 0.00 | 0.00 | 42 | 1005.1 |
| 20260510004157 | 66 | 238 | 2.0 | 4.0 | 0.00 | 0.00 | 0.00 | 40 | 1005.1 |